Location: Bratsk-Energetik
(56.3300°N, 101.7600°E)
Time: 05:31:11
(UTC+08:00)

ISS - Pass Details

Date: 19 July 2018
Orbit: 402 x 408 km, 51.6° (Epoch: 16 July)

Event Time Altitude Azimuth Distance (km) Brightness Sun altitude
Rises 02:54:41 0° 265° (W) 2,329 -0.3 -10.2°
Reaches altitude 10° 02:56:53 10° 255° (WSW) 1,468 -1.4 -10.0°
Maximum altitude 02:59:52 33° 190° (S) 715 -3.1 -9.9°
Drops below altitude 10° 03:02:52 10° 125° (SE) 1,468 -1.1 -9.7°
Sets 03:05:04 0° 115° (ESE) 2,328 0.0 -9.6°
